Weather History for KBML - July, 2013

Change the Weather History Date:

Tuesday, July 30, 2013

  Actual Average Record
Temperature  
Mean Temperature 65 °F -  
Max Temperature 75 °F 75 °F 86 °F (1999)
Min Temperature 51 °F 48 °F 37 °F (1997)
Growing Degree Days 15 (Base 50)    
Moisture  
Dew Point 57 °F    
Average Humidity 89    
Maximum Humidity 100    
Minimum Humidity 46    
Precipitation  
Precipitation 0.00 in - - ()
Sea Level Pressure  
Sea Level Pressure 30.09 in    
Wind  
Wind Speed 1 mph (WNW)    
Max Wind Speed 8 mph    
Max Gust Speed 16 mph    
Visibility 4 miles    
Events Fog    
Averages and records for this station are not official NWS values.
T = Trace of Precipitation, MM = Missing Value Source: NWS Daily Summary

Daily Weather History Graph

Daily Weather History Graph

Search for Another Location

Airport or City:

Trip Planner

Search our weather history database for the weather conditions in past years. The results will help you decide how hot, cold, wet, or windy it might be!

Date:

Astronomy

Jul. 30, 2013 Rise Set
Actual Time 5:29 AM EDT 8:12 PM EDT
Civil Twilight 4:55 AM EDT 8:45 PM EDT
Nautical Twilight 4:13 AM EDT 9:28 PM EDT
Astronomical Twilight 3:23 AM EDT 10:16 PM EDT
Moon No Moon Rise 2:28 PM EDT (7/30)
Length of Visible Light 15h 50m
Length of Day
14h 43m
Last Quarter, 41% of the Moon is Illuminated
Jul 30
Last Quarter
Aug 6
New
Aug 14
First Quarter
Aug 20
Full
Aug 28
Last Quarter

Hourly Weather History & Observations

Time (EDT) Temp. Dew Point Humidity Pressure Visibility Wind Dir Wind Speed Gust Speed Precip Events Conditions
12:03 AM 60.8 °F 60.8 °F 100% 30.09 in 0.5 mi Calm Calm - N/A Fog Fog
12:12 AM 60.8 °F 60.8 °F 100% 30.09 in 0.2 mi Calm Calm - N/A Fog Fog
12:45 AM 60.8 °F 60.8 °F 100% 30.08 in 0.2 mi Calm Calm - N/A Fog Fog
12:52 AM 61.0 °F 60.1 °F 97% 30.07 in 0.2 mi Calm Calm - N/A Fog Fog
1:06 AM 60.8 °F 60.8 °F 100% 30.08 in 0.2 mi Calm Calm - N/A Fog Fog
1:14 AM 60.8 °F 60.8 °F 100% 30.09 in 1.0 mi Calm Calm - N/A   Mist
1:24 AM 60.8 °F 60.8 °F 100% 30.09 in 0.2 mi Calm Calm - N/A Fog Fog
1:39 AM 60.8 °F 60.8 °F 100% 30.08 in 1.0 mi Calm Calm - N/A   Overcast
1:41 AM 60.8 °F 60.8 °F 100% 30.08 in 2.0 mi Calm Calm - N/A   Overcast
1:46 AM 60.8 °F 60.8 °F 100% 30.08 in 1.0 mi Calm Calm - N/A   Overcast
1:52 AM 60.1 °F 59.0 °F 96% 30.08 in 0.2 mi Calm Calm - N/A Fog Fog
2:10 AM 60.8 °F 59.0 °F 94% 30.09 in 0.2 mi Calm Calm - N/A Fog Fog
2:19 AM 59.0 °F 59.0 °F 100% 30.09 in 0.5 mi Calm Calm - N/A Fog Fog
2:31 AM 59.0 °F 59.0 °F 100% 30.08 in 1.8 mi Calm Calm - N/A   Overcast
2:33 AM 59.0 °F 59.0 °F 100% 30.08 in 4.0 mi Calm Calm - N/A   Overcast
2:49 AM 59.0 °F 57.2 °F 94% 30.08 in 1.8 mi Calm Calm - N/A   Overcast
2:52 AM 59.0 °F 57.9 °F 96% 30.08 in 0.8 mi Calm Calm - N/A   Overcast
3:06 AM 59.0 °F 59.0 °F 100% 30.08 in 1.8 mi Calm Calm - N/A   Overcast
3:08 AM 59.0 °F 59.0 °F 100% 30.08 in 3.0 mi Calm Calm - N/A   Overcast
3:15 AM 59.0 °F 59.0 °F 100% 30.09 in 1.2 mi Calm Calm - N/A   Overcast
3:21 AM 59.0 °F 59.0 °F 100% 30.08 in 0.2 mi Calm Calm - N/A Fog Fog
3:39 AM 60.8 °F 59.0 °F 94% 30.08 in 0.8 mi Calm Calm - N/A   Overcast
3:43 AM 59.0 °F 59.0 °F 100% 30.09 in 1.5 mi Calm Calm - N/A   Overcast
3:49 AM 59.0 °F 59.0 °F 100% 30.09 in 0.8 mi Calm Calm - N/A   Mist
3:52 AM 59.0 °F 59.0 °F 100% 30.09 in 0.5 mi Calm Calm - N/A Fog Fog
4:52 AM 59.0 °F 59.0 °F 100% 30.09 in 0.5 mi Calm Calm - N/A Fog Fog
5:07 AM 57.2 °F 57.2 °F 100% 30.10 in 1.2 mi Calm Calm - N/A   Overcast
5:14 AM 59.0 °F 57.2 °F 94% 30.10 in 1.8 mi Calm Calm - N/A   Overcast
5:20 AM 59.0 °F 57.2 °F 94% 30.10 in 3.0 mi Calm Calm - N/A   Overcast
5:52 AM 55.9 °F 55.9 °F 100% 30.10 in 0.8 mi Calm Calm - 0.00 in   Mist
6:00 AM 55.4 °F 55.4 °F 100% 30.10 in 0.2 mi Calm Calm - N/A Fog Fog
6:11 AM 57.2 °F 57.2 °F 100% 30.10 in 1.0 mi Calm Calm - N/A   Mist
6:14 AM 57.2 °F 57.2 °F 100% 30.10 in 2.0 mi Calm Calm - N/A   Overcast
6:27 AM 57.2 °F 57.2 °F 100% 30.10 in 1.2 mi Calm Calm - N/A   Overcast
6:33 AM 57.2 °F 57.2 °F 100% 30.10 in 0.2 mi Calm Calm - N/A Fog Fog
6:52 AM 57.9 °F 57.9 °F 100% 30.11 in 0.2 mi Calm Calm - N/A Fog Fog
7:09 AM 59.0 °F 57.2 °F 94% 30.10 in 1.0 mi Calm Calm - N/A   Mist
7:12 AM 57.2 °F 57.2 °F 100% 30.10 in 2.0 mi Calm Calm - N/A   Mostly Cloudy
7:20 AM 59.0 °F 59.0 °F 100% 30.10 in 6.0 mi Calm Calm - N/A   Mostly Cloudy
7:29 AM 59.0 °F 59.0 °F 100% 30.11 in 10.0 mi Calm Calm - N/A   Mostly Cloudy
7:52 AM 61.0 °F 57.0 °F 87% 30.11 in 10.0 mi Calm Calm - N/A   Scattered Clouds
8:52 AM 66.0 °F 55.9 °F 70% 30.11 in 10.0 mi Variable 3.5 mph - N/A   Clear
9:52 AM 68.0 °F 55.0 °F 63% 30.11 in 10.0 mi Variable 4.6 mph - N/A   Scattered Clouds
10:52 AM 69.1 °F 54.0 °F 58% 30.10 in 10.0 mi Variable 4.6 mph - N/A   Partly Cloudy
11:52 AM 71.1 °F 53.1 °F 53% 30.10 in 10.0 mi Variable 6.9 mph 16.1 mph N/A   Clear
12:52 PM 75.0 °F 54.0 °F 48% 30.08 in 10.0 mi WNW 6.9 mph - N/A   Mostly Cloudy
1:52 PM 71.1 °F 50.0 °F 47% 30.09 in 10.0 mi WNW 8.1 mph - N/A   Mostly Cloudy
2:52 PM 73.0 °F 51.1 °F 46% 30.08 in 10.0 mi Variable 6.9 mph 16.1 mph N/A   Mostly Cloudy
3:52 PM 73.0 °F 52.0 °F 48% 30.06 in 10.0 mi Variable 6.9 mph - N/A   Clear
4:52 PM 73.9 °F 52.0 °F 46% 30.06 in 10.0 mi Variable 5.8 mph - N/A   Clear
5:52 PM 73.0 °F 52.0 °F 48% 30.06 in 10.0 mi WNW 5.8 mph - N/A   Clear
6:52 PM 72.0 °F 54.0 °F 53% 30.07 in 10.0 mi Variable 3.5 mph - N/A   Clear
7:52 PM 66.0 °F 55.9 °F 70% 30.09 in 10.0 mi Calm Calm - N/A   Scattered Clouds
8:52 PM 57.9 °F 55.9 °F 93% 30.10 in 10.0 mi Calm Calm - N/A   Partly Cloudy
9:52 PM 55.0 °F 54.0 °F 96% 30.11 in 10.0 mi Calm Calm - N/A   Mostly Cloudy
10:52 PM 55.0 °F 53.1 °F 93% 30.12 in 10.0 mi Calm Calm - N/A   Partly Cloudy
11:52 PM 51.1 °F 50.0 °F 96% 30.12 in 10.0 mi Calm Calm - N/A   Clear